Vorticity
2 9 4 9 16 4 47 4 2 20 14 14 -14 19 9 11 4 4 2 2 4 3 -1 -1 2 4 6 -8 -7 5 3 6 4 2 10 8 10 8 7 6 7 7 6 1
-1 14 4 3 3 -1 2 3 1 6 19 4 21 -5 4 9 9 7 2 1 4 2 1 3 6 6 4 -3 0 4 5 5 6 13 14 7 9 10 6 9 6 3 3 1
18 6 -13 24 22 10 -3 0 14 -14 7 3 1 8 -2 9 11 13 5 7 8 4 7 9 7 3 6 -4 2 5 6 14 20 13 8 7 7 7 3 3 2 7 2 4
10 15 6 19 14 5 6 16 20 14 17 7 -6 12 25 8 4 11 8 6 3 6 5 -3 16 2 2 3 9 13 18 13 8 10 2 10 10 3 2 1 4 11 -5 5
15 -10 28 42 -7 8 -6 -9 11 7 5 -5 11 21 13 -0 2 10 10 11 10 10 13 11 3 10 7 14 16 21 9 6 12 15 10 6 10 3 0 4 5 2 0 -1
4 -1 5 -0 3 8 16 11 9 4 6 4 3 -21 52 25 -6 16 10 10 12 7 3 -4 2 8 18 16 11 0 14 -9 7 9 4 6 3 7 1 4 1 2 3 4
9 30 -1 11 7 11 7 1 16 13 24 -0 8 48 -8 6 13 23 40 7 19 8 12 19 19 21 29 4 8 5 4 -0 11 12 3 2 3 2 6 -1 3 4 -1 16
2 28 -0 18 1 8 22 11 0 17 5 -14 7 7 31 -9 1 26 14 2 17 11 8 8 0 -4 7 10 0 2 2 8 7 9 3 3 4 3 2 4 2 9 10 11
-0 4 -4 16 10 5 12 6 11 13 6 20 5 15 15 22 17 37 10 18 7 6 9 9 10 7 7 0 3 -4 5 6 2 9 5 5 7 5 8 3 3 -9 17 11
6 15 21 6 14 6 6 -10 9 13 10 9 1 40 14 11 9 17 11 9 6 0 9 8 6 9 2 4 1 1 0 8 2 1 7 3 2 7 6 -0 21 15 10 9
11 14 27 1 10 10 6 13 4 1 9 11 11 6 7 7 11 10 15 8 6 7 15 10 6 6 6 4 2 6 2 2 -0 7 7 3 7 5 6 13 5 5 8 9
7 1 13 -6 15 4 -0 7 16 1 6 12 2 3 11 4 8 15 13 13 11 5 13 8 9 6 3 5 2 5 9 2 2 3 1 9 14 14 -0 8 13 15 10 6
10 13 9 10 3 20 4 13 7 9 10 7 -5 -3 10 -10 6 20 13 13 13 9 13 10 8 4 0 3 6 7 9 3 6 2 2 13 7 11 5 9 14 8 8 6
-0 6 -4 1 -16 -1 45 16 13 10 7 1 5 5 -10 14 -3 5 8 11 10 12 15 10 9 9 1 -7 4 11 3 8 8 2 16 5 10 10 14 13 13 10 6 4
1 6 9 12 4 5 -1 5 12 13 7 -0 -1 -1 2 -12 -3 -1 3 11 14 17 13 15 12 5 9 2 4 13 5 7 3 10 16 7 8 17 6 11 9 10 4 10
10 5 16 15 10 3 10 9 8 5 8 12 9 9 3 -0 18 21 3 16 13 12 15 11 -4 21 13 10 8 8 8 5 3 20 13 9 1 12 7 12 9 -4 13 6
6 5 13 19 13 6 31 18 25 13 8 9 8 8 7 10 0 7 16 12 12 21 9 9 14 14 14 18 12 8 4 2 14 16 9 1 13 21 13 2 -4 25 6 5
7 8 9 10 14 12 22 9 -3 4 11 22 25 23 8 9 5 2 8 30 9 13 13 18 6 10 10 24 8 -2 -3 16 10 7 13 10 16 13 18 2 14 5 5 9
4 15 4 -1 18 -11 13 27 4 8 -5 14 8 9 14 8 18 17 41 7 4 6 5 -16 1 23 21 22 1 10 15 8 13 13 8 26 18 -2 4 17 6 4 8 9
24 12 1 18 8 -1 13 9 10 4 8 7 6 6 -1 -16 23 13 4 2 -1 1 2 11 21 4 11 7 5 10 14 10 10 8 21 6 12 3 14 1 5 7 11 12
14 12 4 1 3 15 10 4 8 21 6 13 3 -12 8 9 11 12 6 -7 -4 5 4 2 23 12 -10 1 6 9 9 21 23 35 -13 5 14 10 6 6 8 9 10 11
13 16 25 11 7 13 15 18 16 7 -1 -18 9 10 11 9 12 18 10 23 9 7 3 8 1 5 4 11 13 6 26 27 16 7 9 26 4 4 5 6 5 9 10 11
16 -3 9 3 22 1 3 -11 9 9 6 7 7 7 4 5 8 9 6 6 5 6 4 8 13 19 24 15 16 28 11 20 9 11 16 7 7 5 4 4 11 12 12 13
3 2 5 0 24 13 11 1 15 -9 13 4 5 12 6 15 14 14 2 -1 -0 12 12 17 14 17 6 1 36 34 28 21 24 5 13 10 4 3 8 8 8 10 11 12
4 10 16 9 6 2 18 11 -18 3 -8 7 10 8 13 6 2 6 12 17 18 17 15 5 13 15 31 33 32 18 6 7 23 15 2 2 6 7 6 6 8 10 12 12
11 8 11 21 4 5 -13 -10 -1 3 5 15 11 8 2 11 17 16 14 12 12 10 13 31 30 16 7 18 17 14 12 9 5 6 6 5 6 7 6 8 9 11 10 10
Height
3115 3118 3118 3118 3122 3125 3124 3124 3122 3121 3122 3123 3125 3127 3129 3132 3134 3136 3138 3139 3141 3141 3143 3142 3145 3146 3147 3144 3146 3148 3149 3151 3150 3150 3150 3151 3150 3149 3148 3148 3147 3147 3147 3146
3118 3117 3118 3119 3121 3122 3123 3121 3124 3121 3121 3122 3123 3126 3126 3128 3130 3133 3135 3137 3138 3138 3139 3141 3143 3144 3144 3143 3143 3145 3147 3147 3147 3148 3147 3147 3147 3146 3145 3145 3144 3144 3143 3142
3117 3115 3118 3120 3120 3121 3119 3121 3120 3120 3121 3122 3122 3124 3124 3127 3130 3132 3133 3134 3134 3134 3134 3136 3138 3140 3142 3139 3140 3141 3142 3143 3143 3143 3144 3144 3142 3141 3141 3141 3141 3140 3139 3137
3117 3115 3118 3119 3118 3120 3119 3120 3120 3119 3120 3121 3121 3121 3120 3125 3126 3127 3129 3129 3130 3132 3133 3131 3134 3136 3137 3136 3137 3138 3138 3138 3139 3140 3140 3140 3138 3138 3136 3136 3136 3136 3134 3131
3119 3115 3115 3116 3117 3116 3119 3118 3118 3118 3119 3119 3120 3123 3116 3121 3117 3120 3122 3125 3127 3129 3130 3129 3128 3131 3131 3132 3134 3134 3135 3135 3136 3137 3137 3137 3135 3132 3131 3130 3128 3125 3124 3124
3113 3113 3112 3116 3117 3116 3116 3117 3117 3117 3117 3120 3116 3121 3117 3115 3114 3121 3123 3123 3123 3125 3125 3126 3125 3125 3127 3128 3129 3130 3131 3131 3132 3133 3132 3132 3132 3129 3128 3127 3125 3123 3119 3115
3110 3111 3113 3114 3114 3115 3116 3115 3115 3121 3120 3112 3107 3110 3107 3107 3108 3104 3113 3118 3118 3120 3120 3121 3122 3121 3122 3123 3126 3127 3128 3127 3129 3129 3128 3127 3126 3125 3123 3120 3117 3116 3113 3109
3109 3110 3113 3112 3113 3115 3113 3114 3115 3122 3132 3112 3110 3106 3105 3107 3109 3111 3113 3113 3114 3115 3117 3118 3119 3120 3120 3122 3123 3124 3124 3123 3124 3124 3123 3123 3122 3120 3117 3114 3113 3109 3105 3101
3108 3111 3112 3110 3113 3114 3112 3113 3114 3115 3115 3111 3109 3105 3106 3106 3107 3109 3110 3110 3112 3113 3114 3114 3115 3115 3117 3119 3120 3121 3120 3118 3118 3119 3117 3116 3115 3113 3110 3107 3104 3100 3096 3093
3106 3109 3109 3110 3111 3110 3110 3113 3113 3112 3113 3113 3103 3100 3100 3107 3107 3108 3110 3109 3110 3111 3112 3112 3112 3112 3113 3115 3116 3117 3115 3113 3112 3112 3111 3109 3107 3105 3102 3099 3095 3091 3088 3084
3103 3105 3108 3108 3108 3107 3109 3109 3111 3112 3110 3110 3109 3106 3107 3107 3106 3108 3110 3108 3108 3108 3108 3109 3109 3109 3109 3110 3109 3112 3111 3107 3105 3104 3104 3101 3099 3096 3093 3090 3086 3082 3079 3075
3102 3101 3102 3104 3103 3105 3106 3107 3108 3109 3111 3110 3110 3109 3106 3105 3106 3106 3107 3109 3107 3106 3106 3106 3107 3106 3105 3103 3103 3105 3105 3102 3099 3098 3095 3093 3091 3087 3082 3080 3076 3072 3070 3067
3099 3101 3103 3103 3103 3102 3103 3105 3106 3106 3107 3108 3110 3108 3105 3104 3104 3104 3105 3105 3106 3105 3105 3105 3104 3102 3100 3098 3097 3097 3099 3097 3094 3089 3087 3086 3081 3079 3074 3072 3067 3064 3061 3059
3097 3099 3101 3102 3100 3101 3100 3102 3103 3104 3105 3106 3106 3105 3106 3103 3101 3102 3101 3102 3104 3103 3102 3103 3103 3099 3096 3093 3093 3091 3089 3089 3086 3082 3082 3077 3074 3069 3066 3062 3059 3057 3054 3051
3095 3097 3099 3098 3097 3098 3098 3099 3100 3101 3102 3103 3103 3103 3103 3102 3101 3102 3100 3100 3099 3100 3100 3099 3100 3097 3093 3089 3088 3086 3082 3081 3079 3076 3074 3070 3067 3062 3059 3055 3054 3051 3048 3043
3091 3094 3095 3095 3095 3096 3096 3096 3097 3097 3097 3097 3098 3099 3101 3099 3095 3097 3096 3095 3096 3095 3096 3094 3094 3093 3089 3085 3082 3080 3077 3074 3070 3071 3067 3064 3059 3054 3049 3047 3046 3042 3039 3035
3089 3091 3092 3093 3093 3093 3092 3090 3091 3092 3093 3094 3094 3096 3096 3095 3094 3091 3091 3091 3090 3089 3089 3089 3086 3085 3084 3081 3078 3074 3071 3066 3065 3063 3060 3055 3049 3046 3042 3040 3037 3034 3031 3028
3086 3088 3089 3090 3091 3092 3087 3086 3086 3087 3088 3090 3091 3089 3090 3088 3088 3088 3087 3086 3086 3084 3083 3082 3082 3080 3078 3076 3072 3069 3064 3061 3059 3056 3051 3047 3041 3039 3035 3032 3028 3025 3023 3019
3083 3084 3085 3087 3087 3086 3083 3084 3084 3084 3087 3085 3085 3085 3086 3086 3086 3085 3082 3080 3080 3079 3078 3077 3076 3074 3072 3068 3064 3061 3058 3055 3052 3046 3041 3038 3033 3032 3030 3024 3020 3019 3015 3011
3077 3080 3083 3083 3084 3084 3081 3080 3081 3083 3085 3082 3082 3083 3083 3083 3083 3081 3078 3076 3075 3074 3072 3070 3068 3066 3063 3059 3057 3054 3050 3046 3041 3034 3030 3026 3025 3023 3021 3020 3016 3012 3007 3003
3073 3075 3078 3079 3081 3080 3079 3078 3079 3082 3086 3079 3080 3080 3079 3079 3079 3076 3074 3073 3069 3067 3064 3062 3061 3057 3053 3049 3047 3043 3040 3035 3029 3025 3023 3022 3019 3016 3018 3017 3011 3005 3001 2996
3070 3072 3073 3077 3078 3078 3076 3076 3079 3078 3077 3077 3076 3075 3073 3072 3072 3070 3068 3064 3063 3060 3055 3054 3050 3048 3044 3042 3038 3034 3029 3024 3023 3022 3019 3017 3015 3014 3012 3008 3005 2999 2994 2989
3069 3070 3071 3073 3074 3073 3074 3074 3073 3072 3072 3071 3070 3068 3067 3065 3064 3063 3061 3057 3056 3051 3047 3044 3043 3041 3039 3036 3032 3027 3023 3019 3017 3018 3016 3013 3011 3009 3005 3001 2996 2991 2986 2982
3065 3065 3068 3070 3072 3072 3071 3070 3066 3066 3066 3066 3065 3062 3060 3060 3058 3055 3051 3048 3045 3043 3040 3038 3036 3033 3030 3026 3023 3020 3020 3019 3017 3014 3010 3008 3005 3002 2998 2994 2989 2983 2978 2974
3062 3062 3064 3065 3067 3067 3064 3060 3062 3062 3060 3060 3058 3054 3055 3053 3050 3047 3044 3041 3039 3036 3034 3032 3029 3026 3024 3022 3021 3019 3017 3014 3010 3006 3004 3001 2998 2995 2991 2986 2981 2977 2971 2967
3057 3059 3059 3060 3058 3061 3055 3055 3056 3056 3054 3053 3050 3049 3048 3045 3043 3040 3038 3035 3033 3031 3028 3025 3023 3022 3021 3018 3015 3011 3009 3006 3003 3001 2998 2995 2990 2986 2982 2978 2974 2969 2963 2958